Current Version              Previous Version:    01  02  03  04  05  06  07  08  09  10  11  12  13  14  15  16  17  18  19  20  21  22  23  24  25  26  27  28  29  30  
   31  32  33  34  35  36  37  38  39  40  41  42  43  44  45  46  47  48  49  50  51  52  53  54  55  56  57  58  59  60  

[Printable]
114
ASUS44 KEWX 201510
RWRTX
SOUTH TEXAS REGIONAL WEATHER ROUNDUP
NATIONAL WEATHER SERVICE AUSTIN/SAN ANTONIO TX
1000 AM CDT MON OCT 20 2014

NOTE: "FAIR" INDICATED FEW OR NO CLOUDS BELOW 12,000 FEET WITH NO
SIGNIFICANT WEATHER AND/OR OBSTRUCTIONS TO VISIBILITY.

* - THESE STATIONS ARE NOT NWS OR FAA STATIONS...AND ARE NOT SUBJECT
    TO NWS AND FAA QUALITY CONTROL.

TXZ171-172-183>190-201600-
TEXAS HILL COUNTRY AND EDWARDS PLATEAU

CITY           SKY/WX    TMP DP  RH WIND       PRES   REMARKS
JUNCTION       CLOUDY    63  58  83 CALM      30.12R
*LLANO         SUNNY     66  64  94 CALM      30.15R
BURNET         MOSUNNY   69  63  81 VRB5      30.13R
*HORSESHOE BAY SUNNY     69  64  83 E3        30.11R
*KERRVILLE     MOSUNNY   66  62  86 SE3       30.11S
*FREDERICKSBRG MOSUNNY   66  61  84 CALM      30.11S
*ROCKSPRINGS   PTSUNNY   68  61  77 SE6       30.15R
*BOERNE STAGE  MOSUNNY   68  61  77 NE3       30.12R
*CASTROVILLE   MOSUNNY   74  62  68 E8        30.09R
HONDO          PTSUNNY   68  64  87 E8        30.10R
*UVALDE        CLOUDY    70  66  86 NE6       30.09R
DEL RIO        CLOUDY    70  66  87 E12       30.06R
LAUGHLIN AFB   CLOUDY    70  66  87 SE13      30.07R
CARRIZO SPRGS  PTSUNNY   72  66  83 E6        30.04R
$$

TXZ173-191>194-202-209-217>225-228-201600-
CENTRAL AND SOUTH CENTRAL TEXAS

CITY           SKY/WX    TMP DP  RH WIND       PRES   REMARKS
GEORGETOWN     PTSUNNY   66  63  88 CALM      30.11R
AUSTIN/BERGSTM MOSUNNY   68  64  87 NE6       30.09R FOG
AUSTIN/MABRY   SUNNY     70  64  81 VRB3      30.10R
*AUSTIN/EXEC   PTSUNNY   66  64  94 E6        30.11R FOG
*LAGO VISTA    MOSUNNY   71  63  75 SE5       30.12R
SAN MARCOS     SUNNY     72  61  68 NE7       30.10R
NEW BRAUNFELS  SUNNY     73  66  78 NE9       30.07R
RANDOLPH AFB   SUNNY     71  63  75 E7        30.08R
PT SAN ANTONIO SUNNY     73  64  74 NE8       30.06R
SAN ANTONIO    MOSUNNY   72  64  76 E8        30.09R
STINSON FIELD  SUNNY     73  64  73 E7        30.06R
*PLEASANTON    MOSUNNY   69  65  84 NE5       30.07R
*LA GRANGE     SUNNY     69  64  83 CALM      30.06S
*GIDDINGS      SUNNY     67  60  78 NE5       30.13R
*GONZALES      SUNNY     72  66  81 NE7       30.07R
$$

TXZ163>164-176>182-195>201-210>213-226-227-235-201600-
SOUTHEAST TEXAS

CITY           SKY/WX    TMP DP  RH WIND       PRES   REMARKS
COLLEGE STN    SUNNY     67  56  67 E6        30.09R
*BRYAN         SUNNY     66  58  75 E3        30.11S
*CALDWELL      SUNNY     66  61  82 CALM      30.13R
*CROCKETT      SUNNY     70  57  64 NE3       30.14R
*BRENHAM       SUNNY     70  59  68 E3        30.10R
HUNTSVILLE     SUNNY     65  57  75 CALM      30.10R
CONROE         SUNNY     66  55  67 CALM      30.10R
HOUSTON BUSH   MOSUNNY   70  58  65 NE6       30.07R
HOUSTON HOBBY  MOSUNNY   71  61  70 NE5       30.06R
*HOUSTON SW AP SUNNY     64  58  81 N6        30.07R
PEARLAND       SUNNY     72  63  73 NE8       30.07R
HOUSTON HOOKS  SUNNY     69  57  65 NE5       30.08R
ELLINGTON FLD  MOSUNNY   70  63  78 NE6       30.08R
SUGAR LAND     SUNNY     73  62  68 NE7       30.06R
*HOUSTON EXEC  SUNNY     68 N/A N/A E6        30.09R
*CLEVELAND MUN SUNNY     65  58  78 CALM      30.10
*WHARTON       SUNNY     72  64  78 NE6       30.07R
*COLUMBUS      FAIR      69  63  80 E5        30.07R
$$

TXZ214>216-236>238-201600-
THE UPPER TEXAS COAST

CITY           SKY/WX    TMP DP  RH WIND       PRES   REMARKS
*ORANGE        SUNNY     67  62  83 NE6       30.09S
PORT ARTHUR    SUNNY     71  59  65 VRB5      30.07R
GALVESTON      SUNNY     75  68  78 NE12      30.05R
ANGLETON       SUNNY     73  68  84 NE9       30.05R
*BAY CITY        N/A     74  69  87 NE8       30.04R
PALACIOS       SUNNY     74  68  81 NE9       30.03R
$$

TXZ229>234-239>247-201600-
TEXAS COASTAL BEND AND RIO GRANDE PLAINS

CITY           SKY/WX    TMP DP  RH WIND       PRES   REMARKS
VICTORIA       SUNNY     72  67  84 NE12      30.04R
*BEEVILLE      MOSUNNY   76  68  76 E8        30.03R
ROCKPORT       HVY RAIN  73  71  93 N7        30.01R FOG
*PORT ARANSAS  PTSUNNY   77  69  76 E13       30.00R
*PORT LAVACA   PTSUNNY   72  67  84 NE7G17    30.04R
*INGLESIDE     MOSUNNY   79  70  74 E12       30.00R
CORPUS CHRISTI LGT RAIN  74  70  87 S3        30.01R
CORPUS NAS     LGT RAIN  73  73 100 W8        29.99R
*ROBSTOWN      CLOUDY    75  71  87 E3        30.02R
ALICE          CLOUDY    76  69  79 E10       30.02R
KINGSVILLE NAS PTSUNNY   76  72  87 E5        30.00R
COTULLA        MOSUNNY   75  66  73 E8        30.05R
*FAITH RANCH   CLOUDY    68  66  94 E9        30.05R
LAREDO         PTSUNNY   72  67  84 NE9       30.05R
$$

TXZ248>255-201600-
DEEP SOUTH TEXAS

CITY           SKY/WX    TMP DP  RH WIND       PRES   REMARKS
BROWNSVILLE    SUNNY     82  70  66 NE5       29.96R
PORT ISABEL    SUNNY     83  68  60 E8        29.96R
*SOUTH PADRE   SUNNY    N/A N/A N/A E6        29.96R
HARLINGEN      SUNNY     86  72  62 N8        29.96R HX  92
*HEBBRONVILLE  CLOUDY    72  68  89 N7        30.03R
MCALLEN        SUNNY     80  69  69 NE7       29.98R
*WESLACO       SUNNY     80  69  68 N5        29.97R
FALFURRIAS     CLOUDY    73  69  88 NE7       30.00R
EDINBURG       PTSUNNY   81  69  68 NE5       29.98R
*ZAPATA        MOSUNNY   78  67  68 E7        30.01R
$$

TXZ213>215-236>238-242>244-246-247-251-254-255-201600-
CMAN STATIONS

STATION/POSITION TIME  TEMP    WIND        PRES    WAVE
                       AIR SEA DIR/SP/G            HT/PER
                 (UTC) (F)     (DEG/KT/KT) (MB)    (FT/S)
SABINE PASS      1500   68 76   60/  6/ 10 1018.1
SEA RIM ST PARK  1500   69      40/  7/  9 1018.5
NORTH JETTY/GLS  1500   71 77   70/ 13/ 14   N/A
EAGLE POINT      1500   69 75   50/ 13/ 15 1017.9
MORGANS POINT    1500   68      40/  8/  9 1018.0
MISSION/ARANSAS  1400           50/  8     1017.0
PORT O`CONNOR    1500           40/ 12/ 14   N/A
PORT ARANSAS     1500   76 79   50/ 17/ 20 1016.1
MALAQUITE BEACH  1500   74 78  270/  6/  8 1015.1
BAFFIN BAY       1500   75 81  330/  3/  4 1015.2
PORT ISABEL      1500   83 79   80/  6/ 10 1014.7
$$

GMZ080-GMZ150>470-201600-
OFFSHORE BUOY REPORTS

STATION/POSITION TIME  TEMP    WIND        PRES    WAVE
                       AIR SEA DIR/SP/G            HT/PER
                 (UTC) (F)     (DEG/KT/KT) (MB)    (FT/S)
20 E GALVESTON   1500   76 80   70/ 10/ 14 1017.0    3/ 5
90 E PT ARANSAS  1500   79 81   70/ 14/ 16 1015.9    4/ 6
35 NE PT MANSFLD 1500   81 80  100/  8/ 10 1014.5    4/ 6
200 E PT ISABEL  1500   80 82   90/ 12/ 16 1014.4    3/ 5
$$